Location: Lake Almanor
(40.2485°N, 121.1442°W)
Time: 10:48:22
(UTC-08:00)

STARLINK-1083 - Pass Details

Date: 04 February 2020
Orbit: 349 x 351 km, 53.0° (Epoch: 18 February)

Event Time Altitude Azimuth Distance (km) Brightness Sun altitude
Rises 18:24:15 0° 292° (WNW) 2,160 7.7 -11.4°
Reaches altitude 10° 18:26:55 10° 265° (W) 1,313 7.1 -11.9°
Maximum altitude 18:28:32 14° 231° (SW) 1,111 6.2 -12.2°
Drops below altitude 10° 18:30:08 10° 197° (SSW) 1,308 5.9 -12.5°
Sets 18:32:48 0° 170° (S) 2,145 6.7 -13.0°
